Wind_Speed
58 57 57 56 56 54 53 53 52 51 50 48 48 47 47 47 46 45 44 44 43 43 42 42 42 42 42 42 42 42 42 42 42 43 44 43 43 43
56 56 56 55 56 55 53 52 51 50 49 47 47 46 46 46 46 45 45 44 43 43 43 43 43 42 42 42 42 42 42 42 42 42 43 43 42 43
56 56 56 56 56 55 54 52 51 50 50 48 47 46 46 45 45 45 45 44 43 43 43 43 43 42 42 42 43 42 42 42 42 42 43 44 44 44
56 56 56 56 55 54 53 52 50 50 50 49 47 46 46 45 45 45 44 44 43 43 43 43 43 42 42 42 43 43 42 42 42 42 44 44 43 44
56 56 56 55 53 53 52 51 50 49 49 49 48 47 46 45 45 45 44 43 43 43 43 43 42 42 43 43 43 42 42 41 42 43 44 43 43 44
55 55 55 53 52 52 51 50 50 49 48 48 47 47 46 45 44 44 43 43 42 42 42 42 42 42 42 43 42 42 41 41 42 42 43 43 44 44
53 54 53 52 50 50 50 49 49 48 48 47 47 47 45 45 45 45 44 43 42 42 42 42 43 42 42 42 42 41 41 42 42 42 42 43 44 44
51 52 52 51 50 50 49 48 48 48 48 48 48 47 45 45 45 44 44 43 42 42 43 43 43 42 42 41 41 41 41 41 42 42 42 43 43 44
49 50 51 50 48 49 48 48 47 46 47 47 47 46 45 45 45 44 44 44 43 43 43 43 42 42 41 41 40 40 41 42 42 42 42 43 43 43
47 48 49 49 48 48 48 48 47 46 45 45 45 45 45 44 44 44 43 42 42 42 42 42 41 41 40 39 40 41 41 41 42 42 42 43 43 43
44 45 47 46 46 47 48 47 45 44 44 44 44 44 44 44 44 43 42 42 41 41 41 42 41 40 39 39 40 40 41 42 42 42 42 43 42 41
43 44 45 44 45 45 45 45 44 44 44 44 44 44 43 42 42 42 42 42 41 40 40 40 40 40 40 40 40 40 41 42 42 42 42 40 39 39
42 43 44 44 44 43 43 43 43 43 42 42 42 42 41 40 40 40 40 40 40 40 39 39 39 39 40 40 39 40 41 41 41 40 39 38 38 38
42 41 42 43 43 43 43 42 41 41 41 40 41 40 38 38 38 38 39 39 38 38 37 37 37 38 38 39 39 39 39 40 39 38 37 37 37 37
42 41 41 42 41 41 41 41 40 40 39 39 38 37 37 37 38 37 38 38 37 37 36 35 36 36 37 38 37 37 37 37 36 36 36 36 35 35
40 39 40 41 41 41 40 40 39 38 38 37 36 36 36 36 36 36 37 36 36 35 34 34 33 34 35 35 36 35 35 34 33 34 34 34 34 34
39 38 39 41 41 40 39 38 37 36 36 35 35 35 34 34 34 35 35 35 34 33 33 32 31 32 33 34 34 33 32 32 32 33 33 33 33 33
37 37 38 39 39 37 36 35 35 35 35 34 34 33 33 33 33 33 33 32 32 31 31 31 31 31 32 32 31 31 30 31 31 32 32 32 32 32
35 36 36 37 37 36 35 35 35 34 34 33 32 33 33 33 33 33 31 30 30 30 30 30 30 30 29 28 27 28 29 29 30 30 30 30 30 30
33 35 36 36 35 36 35 34 33 33 33 32 32 33 33 32 32 31 30 29 29 28 28 28 28 28 26 26 26 26 27 28 29 29 30 29 29 29
32 33 34 35 35 35 34 33 33 33 32 32 32 32 31 30 30 28 27 26 27 26 26 26 26 25 24 25 25 26 26 27 28 28 29 29 28 28
32 32 33 33 33 33 33 33 33 32 32 32 30 29 29 28 27 26 25 25 24 24 24 24 24 24 24 24 24 25 25 26 27 27 27 27 27 27
32 32 32 33 32 32 32 32 32 32 31 31 30 29 28 27 26 25 24 24 23 22 22 22 22 22 23 23 24 25 25 26 26 26 26 25 25 25
Wind_Direction
250 250 251 252 253 253 253 255 258 259 261 262 263 265 267 268 268 269 270 272 274 277 280 283 285 288 291 294 296 298 299 301 303 305 307 307 308 310
249 250 250 251 252 252 251 254 257 259 261 261 262 264 266 267 267 269 270 272 274 277 280 283 285 288 291 293 296 297 299 300 302 304 305 306 307 310
248 248 249 251 252 252 251 252 255 257 260 261 263 264 265 266 266 267 270 272 274 277 280 283 284 287 290 293 296 297 299 300 302 303 304 306 308 310
247 247 248 250 252 252 252 253 254 256 259 261 262 263 264 265 265 266 268 270 273 276 279 281 284 286 289 292 295 296 298 300 301 302 304 305 307 309
246 247 247 249 251 252 253 253 254 255 257 260 261 262 262 263 264 265 267 269 272 275 277 280 283 285 288 291 293 295 298 300 301 302 304 304 306 308
246 246 246 248 249 251 253 254 254 255 257 258 259 260 261 263 264 265 267 269 271 274 277 280 283 285 288 290 292 294 297 299 301 302 304 304 306 307
247 246 246 246 247 250 252 253 253 255 256 257 258 259 260 262 264 264 267 270 271 274 277 280 283 285 288 290 291 293 295 298 301 302 303 304 305 307
247 246 245 246 248 249 250 251 253 254 256 257 258 259 259 262 263 264 267 269 271 274 276 279 282 284 287 289 290 292 295 298 300 301 302 303 305 307
248 247 246 246 248 248 249 250 253 254 255 257 257 258 259 261 262 263 266 269 271 273 275 279 282 284 286 287 288 291 294 297 300 301 302 303 305 307
249 247 246 245 246 248 249 250 252 253 255 256 257 258 259 260 261 263 265 268 270 272 275 278 280 283 285 287 288 290 293 296 299 300 301 303 304 307
248 246 245 245 246 248 249 250 251 252 253 255 256 256 257 259 260 262 264 267 269 272 275 278 279 282 284 286 289 291 294 297 299 300 300 302 303 304
248 248 246 245 246 248 249 249 250 252 253 253 254 254 256 259 261 262 264 267 270 273 274 276 279 282 284 287 289 291 294 297 299 301 301 301 302 304
248 247 246 245 245 247 248 250 251 252 252 253 253 254 256 257 259 262 264 268 271 273 274 275 279 283 285 287 288 291 293 296 299 300 300 301 302 303
247 246 246 244 244 245 247 250 251 251 251 252 254 255 256 257 259 261 264 268 270 272 273 276 280 282 285 286 289 290 292 295 298 300 300 301 302 303
247 246 245 243 243 245 248 249 249 250 250 251 255 255 256 258 258 261 265 267 268 270 272 275 279 281 284 286 289 290 293 295 296 298 300 301 302 304
245 245 243 242 243 245 246 246 248 249 249 251 254 254 255 258 259 261 264 265 266 268 272 276 280 282 285 287 289 291 293 294 296 299 300 300 302 303
242 242 242 241 242 245 245 245 245 246 247 250 252 253 255 256 259 261 262 263 265 268 271 275 279 283 286 289 290 292 294 295 298 300 300 300 302 304
239 241 241 240 241 242 241 241 242 245 246 248 251 252 255 257 259 261 262 263 264 268 270 275 279 284 287 288 289 291 294 295 298 300 299 299 301 304
238 238 238 240 239 238 238 239 240 243 245 248 250 251 253 256 257 258 260 261 264 268 271 275 278 284 287 286 288 292 293 295 297 299 299 300 302 304
238 236 235 236 236 237 238 239 240 241 244 247 250 251 253 254 255 255 258 262 265 269 271 275 279 282 284 285 287 291 293 295 297 298 299 301 302 304
237 235 234 233 235 237 238 239 239 241 244 247 249 251 252 253 252 253 257 260 264 267 270 273 276 279 281 283 286 290 291 294 296 298 299 301 304 307
234 233 232 232 234 235 236 238 239 242 243 245 247 249 250 250 251 252 254 258 261 264 267 270 274 275 277 281 285 288 292 295 296 298 301 303 304 308
232 232 231 230 232 234 235 237 238 239 240 241 244 246 247 248 249 249 252 255 258 262 264 267 270 273 277 281 286 290 294 297 299 301 303 303 304 307
Height
5656 5660 5664 5667 5670 5673 5676 5678 5680 5682 5685 5688 5689 5690 5690 5690 5691 5691 5691 5691 5690 5689 5687 5686 5683 5681 5677 5674 5670 5666 5661 5657 5652 5647 5641 5636 5630 5624
5642 5646 5650 5653 5657 5660 5663 5665 5667 5669 5672 5676 5677 5678 5678 5679 5679 5679 5680 5680 5680 5679 5677 5675 5673 5671 5668 5664 5660 5656 5652 5647 5642 5637 5632 5626 5621 5615
5627 5631 5636 5640 5643 5647 5650 5652 5655 5656 5659 5663 5665 5666 5667 5668 5669 5669 5669 5669 5669 5668 5667 5665 5663 5660 5657 5654 5650 5646 5642 5638 5633 5628 5622 5617 5611 5606
5613 5617 5621 5626 5629 5633 5636 5639 5642 5644 5646 5649 5652 5654 5655 5657 5657 5658 5658 5658 5658 5657 5656 5654 5652 5650 5647 5644 5640 5636 5632 5628 5623 5619 5613 5608 5603 5597
5599 5603 5608 5612 5616 5620 5623 5626 5629 5632 5634 5636 5639 5641 5643 5645 5645 5646 5647 5647 5647 5646 5645 5643 5642 5640 5637 5634 5630 5626 5623 5619 5614 5609 5604 5599 5593 5588
5585 5589 5594 5599 5603 5607 5610 5613 5616 5619 5621 5624 5626 5629 5631 5633 5633 5635 5635 5636 5635 5635 5634 5633 5631 5629 5626 5623 5620 5617 5613 5609 5604 5600 5595 5590 5584 5578
5572 5576 5581 5586 5590 5593 5597 5601 5604 5607 5609 5611 5614 5616 5619 5621 5622 5623 5624 5624 5624 5624 5623 5622 5621 5619 5616 5613 5610 5607 5603 5599 5595 5590 5585 5580 5574 5569
5559 5563 5568 5572 5576 5580 5584 5588 5591 5594 5597 5599 5602 5604 5608 5609 5610 5611 5612 5613 5614 5614 5612 5611 5610 5608 5606 5603 5600 5597 5593 5590 5585 5581 5576 5570 5565 5560
5546 5551 5555 5560 5564 5567 5571 5575 5578 5581 5585 5587 5590 5592 5595 5597 5599 5600 5600 5601 5603 5603 5601 5600 5599 5597 5595 5593 5590 5587 5584 5580 5576 5571 5566 5561 5556 5550
5534 5538 5543 5548 5551 5555 5559 5563 5566 5569 5573 5575 5578 5581 5583 5585 5586 5588 5589 5590 5591 5591 5590 5590 5588 5587 5585 5582 5580 5577 5574 5570 5566 5561 5557 5551 5546 5541
5522 5526 5530 5535 5540 5543 5547 5551 5554 5558 5560 5563 5566 5568 5571 5573 5574 5576 5577 5578 5579 5580 5580 5579 5578 5576 5574 5572 5570 5567 5564 5560 5556 5552 5547 5542 5537 5531
5511 5515 5519 5523 5528 5531 5535 5539 5543 5546 5549 5551 5554 5557 5560 5561 5563 5565 5566 5567 5568 5569 5569 5568 5567 5565 5564 5563 5560 5557 5554 5550 5546 5542 5537 5532 5527 5522
5499 5503 5507 5511 5516 5520 5524 5528 5532 5534 5537 5540 5543 5546 5548 5550 5552 5554 5556 5557 5558 5558 5559 5557 5556 5555 5553 5552 5550 5547 5544 5540 5536 5532 5527 5523 5518 5514
5488 5493 5497 5501 5505 5509 5513 5517 5520 5522 5526 5529 5533 5535 5538 5540 5542 5544 5545 5546 5547 5547 5547 5547 5546 5545 5543 5541 5539 5537 5534 5530 5526 5522 5518 5514 5509 5505
5477 5482 5486 5490 5494 5498 5502 5505 5508 5511 5515 5519 5522 5525 5527 5530 5532 5533 5535 5536 5536 5537 5537 5536 5536 5534 5533 5531 5529 5527 5524 5521 5517 5514 5510 5505 5501 5497
5466 5471 5475 5479 5483 5487 5491 5494 5498 5501 5505 5509 5512 5515 5517 5519 5521 5523 5524 5525 5526 5527 5527 5527 5526 5525 5523 5521 5519 5517 5515 5512 5509 5505 5501 5497 5494 5489
5455 5460 5464 5468 5472 5477 5481 5484 5488 5492 5495 5499 5502 5505 5507 5509 5511 5513 5514 5515 5517 5518 5518 5518 5517 5515 5514 5512 5510 5508 5505 5503 5500 5497 5493 5489 5486 5482
5445 5450 5454 5459 5463 5468 5471 5475 5479 5483 5487 5490 5493 5496 5498 5501 5503 5504 5505 5506 5508 5508 5509 5509 5508 5506 5505 5503 5501 5499 5497 5494 5492 5489 5485 5482 5479 5475
5436 5440 5445 5450 5454 5458 5462 5466 5470 5474 5478 5481 5484 5487 5489 5491 5493 5495 5496 5498 5499 5500 5500 5500 5499 5498 5496 5495 5493 5491 5489 5487 5484 5481 5478 5475 5471 5468
5426 5431 5436 5440 5444 5449 5453 5457 5461 5465 5469 5472 5475 5478 5480 5482 5484 5486 5488 5489 5490 5491 5492 5492 5491 5490 5488 5487 5486 5484 5482 5479 5477 5474 5471 5467 5464 5461
5417 5421 5426 5431 5436 5440 5445 5448 5452 5457 5460 5463 5466 5469 5472 5474 5476 5478 5480 5481 5482 5483 5484 5484 5483 5482 5481 5480 5479 5477 5475 5472 5470 5467 5464 5461 5457 5453
5408 5413 5418 5422 5427 5431 5436 5440 5444 5448 5451 5455 5458 5461 5464 5466 5468 5470 5472 5474 5475 5476 5476 5476 5476 5475 5474 5474 5472 5471 5468 5466 5463 5460 5457 5454 5451 5447
5400 5404 5409 5414 5418 5423 5427 5431 5435 5439 5443 5446 5450 5453 5456 5459 5461 5463 5465 5466 5467 5468 5469 5469 5469 5469 5468 5467 5466 5464 5462 5459 5456 5453 5451 5448 5445 5442